KMADALTO1 Weather Reports


time (UTC)temp
C
wind
direction
speed
KPH
gust
KPH
rain 1hr
cm
rain 24hr
cm
rain mn
cm
humidity
%
barometer
mb
20260504151048 15 192 8.0 29.0 0.00 0.00 0.00 44 1009.4
20260504150551 15 217 11.3 29.0 0.00 0.00 0.00 44 1009.6
20260504150108 14 319 9.7 22.5 0.00 0.00 0.00 43 1009.7
20260504141051 13 281 9.7 27.4 0.00 0.00 0.00 44 1010.0
20260504140550 13 280 9.7 27.4 0.00 0.00 0.00 46 1009.9
20260504130551 11 234 8.0 20.9 0.00 0.00 0.00 52 1010.5
20260504110550 2 0 0.0 1.6 0.00 0.00 0.00 54 1010.9
20260504100550 1 0 0.0 3.2 0.00 0.00 0.00 65 1010.4
20260504100104 1 0 0.0 3.2 0.00 0.00 0.00 65 1010.4
20260504081604 3 0 0.0 0.0 0.00 0.00 0.00 72 1010.2
20260504081051 3 0 0.0 0.0 0.00 0.00 0.00 72 1010.2
20260504080549 3 0 0.0 0.0 0.00 0.00 0.00 72 1010.2
20260504080113 3 0 0.0 0.0 0.00 0.00 0.00 72 1010.2
20260504050551 5 0 0.0 3.2 0.00 0.00 0.00 69 1010.7
20260504045550 5 0 0.0 0.0 0.00 0.00 0.00 70 1010.7
20260504045050 5 0 0.0 3.2 0.00 0.00 0.00 70 1010.7
20260504044551 5 0 0.0 4.8 0.00 0.00 0.00 69 1010.7
20260504044050 5 305 1.6 4.8 0.00 0.00 0.00 69 1010.8
20260504043550 5 0 0.0 3.2 0.00 0.00 0.00 69 1010.7
20260504043108 5 0 0.0 3.2 0.00 0.00 0.00 69 1010.7
20260504042550 5 304 1.6 4.8 0.00 0.00 0.00 69 1010.7
20260504042050 5 304 0.0 4.8 0.00 0.00 0.00 68 1010.8
20260504041550 5 0 1.6 4.8 0.00 0.00 0.00 68 1010.8
20260504041050 5 304 0.0 4.8 0.00 0.00 0.00 67 1010.7
20260504040550 5 302 0.0 8.0 0.00 0.00 0.00 67 1010.6
20260504040112 5 304 1.6 8.0 0.00 0.00 0.00 66 1010.6
20260504035551 5 298 0.0 6.4 0.00 0.00 0.00 66 1010.5
20260504035050 5 298 1.6 6.4 0.00 0.00 0.00 66 1010.5
20260504034556 5 0 1.6 4.8 0.00 0.00 0.00 65 1010.6
20260504034050 5 0 0.0 6.4 0.00 0.00 0.00 65 1010.5
20260504033550 5 309 1.6 6.4 0.00 0.00 0.00 63 1010.4
20260504033053 5 284 3.2 6.4 0.00 0.00 0.00 62 1010.6
20260504032550 5 287 1.6 6.4 0.00 0.00 0.00 61 1010.4
20260504032050 5 298 0.0 6.4 0.00 0.00 0.00 61 1010.4
20260504031556 6 287 1.6 6.4 0.00 0.00 0.00 60 1010.3
20260504031050 6 0 1.6 9.7 0.00 0.00 0.00 59 1010.3
20260504030550 6 282 3.2 9.7 0.00 0.00 0.00 59 1010.3
20260504030055 6 254 1.6 4.8 0.00 0.00 0.00 58 1010.1
20260504025550 6 0 0.0 3.2 0.00 0.00 0.00 58 1010.0
20260504025050 6 0 0.0 1.6 0.00 0.00 0.00 57 1010.2
20260504024553 6 0 0.0 3.2 0.00 0.00 0.00 56 1010.2
20260504024049 6 0 0.0 3.2 0.00 0.00 0.00 56 1010.3
20260504023550 6 0 0.0 3.2 0.00 0.00 0.00 55 1010.3
20260504023101 6 0 0.0 4.8 0.00 0.00 0.00 54 1010.2
20260504022553 7 254 1.6 4.8 0.00 0.00 0.00 54 1010.3
20260504022049 7 275 1.6 9.7 0.00 0.00 0.00 53 1010.3
20260504021557 7 269 1.6 9.7 0.00 0.00 0.00 53 1010.4
20260504021050 7 269 1.6 9.7 0.00 0.00 0.00 51 1010.4
20260504020552 7 246 1.6 6.4 0.00 0.00 0.00 51 1010.3
20260504020055 7 284 1.6 14.5 0.00 0.00 0.00 50 1010.4
20260504015550 7 260 3.2 14.5 0.00 0.00 0.00 50 1010.4
20260504015050 7 273 3.2 16.1 0.00 0.00 0.00 49 1010.2
20260504014605 7 268 3.2 16.1 0.00 0.00 0.00 48 1010.2
20260504014050 7 271 4.8 12.9 0.00 0.00 0.00 48 1010.1
20260504013551 7 273 4.8 16.1 0.00 0.00 0.00 48 1010.1
20260504013100 7 282 4.8 16.1 0.00 0.00 0.00 47 1010.0
20260504012551 7 265 4.8 12.9 0.00 0.00 0.00 47 1010.0
20260504012051 8 281 1.6 12.9 0.00 0.00 0.00 48 1009.9
20260504011550 8 260 4.8 19.3 0.00 0.00 0.00 46 1009.8
20260504011049 8 297 6.4 19.3 0.00 0.00 0.00 46 1009.8
20260504010550 8 260 6.4 17.7 0.00 0.00 0.00 45 1009.8
20260504010055 8 273 8.0 20.9 0.00 0.00 0.00 45 1009.7
20260504005553 8 293 8.0 20.9 0.00 0.00 0.00 45 1009.7
20260504005053 8 290 6.4 16.1 0.00 0.00 0.00 44 1009.6
20260504004555 8 290 3.2 17.7 0.00 0.00 0.00 43 1009.6
20260504004050 8 278 6.4 19.3 0.00 0.00 0.00 42 1009.5
20260504003549 8 288 6.4 20.9 0.00 0.00 0.00 41 1009.5
20260504003101 8 270 8.0 20.9 0.00 0.00 0.00 41 1009.4
20260504002551 8 285 8.0 20.9 0.00 0.00 0.00 40 1009.3
20260504002050 8 288 9.7 20.9 0.00 0.00 0.00 40 1009.3
20260504001607 8 294 8.0 19.3 0.00 0.00 0.00 39 1009.1
20260504001050 8 286 9.7 19.3 0.00 0.00 0.00 38 1009.0
20260504000549 8 197 6.4 17.7 0.00 0.00 0.00 38 1008.8
20260504000130 8 296 6.4 17.7 0.00 0.00 0.00 37 1008.7
20260503235550 8 267 8.0 20.9 0.00 0.00 0.00 37 1008.6
20260503235050 8 269 8.0 20.9 0.00 0.00 0.00 36 1008.7
20260503234557 8 291 9.7 20.9 0.00 0.00 0.00 36 1008.7
20260503234050 8 287 9.7 19.3 0.00 0.00 0.00 35 1008.5
20260503233550 8 287 6.4 17.7 0.00 0.00 0.00 35 1008.6
20260503233058 8 304 6.4 17.7 0.00 0.00 0.00 35 1008.5
20260503232550 9 251 8.0 17.7 0.00 0.00 0.00 34 1008.5
20260503232050 9 271 6.4 20.9 0.00 0.00 0.00 34 1008.6
20260503231549 9 264 4.8 20.9 0.00 0.00 0.00 34 1008.5
20260503231051 9 235 6.4 19.3 0.00 0.00 0.00 33 1008.6
20260503230551 9 246 6.4 20.9 0.00 0.00 0.00 32 1008.5
20260503225550 10 286 8.0 27.4 0.00 0.00 0.00 31 1008.4
20260503225050 10 273 11.3 27.4 0.00 0.00 0.00 30 1008.3
20260503224557 10 337 6.4 25.7 0.00 0.00 0.00 32 1008.3
20260503224051 10 281 4.8 24.1 0.00 0.00 0.00 31 1008.2
20260503223550 10 319 4.8 25.7 0.00 0.00 0.00 32 1008.2
20260503223054 10 300 6.4 25.7 0.00 0.00 0.00 32 1008.2
20260503222552 10 321 9.7 29.0 0.00 0.00 0.00 32 1008.2
20260503222050 10 28 9.7 45.1 0.00 0.00 0.00 32 1008.2
20260503221557 10 283 14.5 45.1 0.00 0.00 0.00 32 1008.2
20260503221050 10 271 16.1 32.2 0.00 0.00 0.00 33 1008.2
20260503220550 10 298 8.0 32.2 0.00 0.00 0.00 34 1008.3
20260503220052 10 253 14.5 32.2 0.00 0.00 0.00 33 1008.2
20260503215550 10 306 8.0 30.6 0.00 0.00 0.00 35 1008.1
20260503215050 10 360 8.0 30.6 0.00 0.00 0.00 37 1008.0
20260503214553 10 300 3.2 22.5 0.00 0.00 0.00 39 1008.1
20260503214049 9 28 3.2 22.5 0.00 0.00 0.00 39 1008.2
20260503213549 10 282 6.4 22.5 0.00 0.00 0.00 39 1008.2
20260503213054 10 5 8.0 30.6 0.00 0.00 0.00 38 1008.2
20260503212549 10 232 8.0 30.6 0.00 0.00 0.00 39 1008.2
20260503212049 10 280 12.9 29.0 0.00 0.00 0.00 37 1008.2
20260503211554 10 312 8.0 17.7 0.00 0.00 0.00 39 1008.1
20260503211049 10 275 4.8 19.3 0.00 0.00 0.00 40 1008.1
20260503210552 10 343 6.4 24.1 0.00 0.00 0.00 40 1008.2
20260503210054 9 17 9.7 24.1 0.00 0.00 0.00 42 1008.3
20260503205550 9 299 9.7 24.1 0.00 0.00 0.00 41 1008.2
20260503205050 8 337 8.0 20.9 0.00 0.00 0.00 43 1008.2
20260503204557 8 342 4.8 29.0 0.00 0.00 0.00 42 1008.3
20260503204049 8 310 11.3 29.0 0.00 0.00 0.00 42 1008.2
20260503203550 8 288 8.0 29.0 0.00 0.00 0.00 42 1008.3
20260503203050 8 246 9.7 29.0 0.00 0.00 0.00 43 1008.3
20260503202550 8 284 12.9 29.0 0.00 0.00 0.00 43 1008.3
20260503202050 8 244 8.0 29.0 0.00 0.00 0.00 43 1008.4
20260503201550 8 284 4.8 25.7 0.00 0.00 0.00 44 1008.4
20260503201049 8 339 9.7 22.5 0.00 0.00 0.00 46 1008.5
20260503200549 8 328 8.0 22.5 0.00 0.00 0.00 46 1008.5
20260503200105 8 276 6.4 24.1 0.00 0.00 0.00 47 1008.7
20260503195550 8 294 11.3 37.0 0.00 0.00 0.00 45 1008.5
20260503195049 8 255 8.0 37.0 0.00 0.00 0.00 46 1008.6
20260503194559 8 332 12.9 32.2 0.00 0.00 0.00 46 1008.8
20260503194050 7 138 11.3 32.2 0.00 0.00 0.00 46 1008.8
20260503193550 7 46 12.9 32.2 0.00 0.00 0.00 45 1008.8
20260503193112 7 275 8.0 22.5 0.00 0.00 0.00 46 1008.7
20260503192551 7 329 8.0 35.4 0.00 0.00 0.00 46 1008.7
20260503192050 7 302 4.8 35.4 0.00 0.00 0.00 47 1008.7
20260503191607 7 270 12.9 30.6 0.00 0.00 0.00 45 1008.7
20260503191051 7 275 12.9 25.7 0.00 0.00 0.00 46 1008.7
20260503190551 7 273 9.7 37.0 0.00 0.00 0.00 47 1008.7
20260503190107 7 350 12.9 37.0 0.00 0.00 0.00 46 1008.7
20260503185549 7 276 11.3 30.6 0.00 0.00 0.00 48 1008.7
20260503185049 7 323 9.7 30.6 0.00 0.00 0.00 47 1008.7
20260503184606 7 260 11.3 30.6 0.00 0.00 0.00 47 1008.7
20260503184052 7 265 9.7 27.4 0.00 0.00 0.00 46 1008.9
20260503183550 7 29 4.8 25.7 0.00 0.00 0.00 47 1008.8
20260503183112 7 348 6.4 25.7 0.00 0.00 0.00 48 1008.8
20260503182550 7 232 9.7 25.7 0.00 0.00 0.00 48 1008.8
20260503182050 7 274 4.8 22.5 0.00 0.00 0.00 49 1008.9
20260503181620 7 316 11.3 24.1 0.00 0.00 0.00 48 1008.8
20260503181050 7 276 4.8 32.2 0.00 0.00 0.00 49 1008.7
20260503180550 7 289 8.0 32.2 0.00 0.00 0.00 49 1008.9
20260503180059 7 5 4.8 32.2 0.00 0.00 0.00 48 1008.8
20260503175550 7 36 3.2 32.2 0.00 0.00 0.00 48 1008.8
20260503175050 7 253 8.0 32.2 0.00 0.00 0.00 48 1008.8
20260503174556 7 265 9.7 24.1 0.00 0.00 0.00 48 1008.7
20260503174050 7 307 4.8 19.3 0.00 0.00 0.00 50 1008.8
20260503173550 7 331 6.4 19.3 0.00 0.00 0.00 50 1008.9
20260503173058 7 259 6.4 19.3 0.00 0.00 0.00 49 1008.8
20260503172553 7 339 4.8 19.3 0.00 0.00 0.00 50 1008.8
20260503172049 7 240 6.4 19.3 0.00 0.00 0.00 50 1008.7
20260503171601 7 286 4.8 19.3 0.00 0.00 0.00 49 1008.7
20260503171051 6 335 4.8 16.1 0.00 0.00 0.00 50 1008.7
20260503170550 6 286 3.2 17.7 0.00 0.00 0.00 50 1008.9